This demonstration page uses our WeatherBlox Daily Observations layout. Learn more.

Left ArrowRight Arrow

Hourly Observations for October 15, 2015

Temp ( °F °C ) Dew Point ( °F °C ) Humidity (%) Winds ( mph kmh ) Pressure ( in mb ) Visibility ( mi km ) Precip ( " mm )
12:53 am 00:53 Clear 40 4.4 29 -1.7 65 65 E 10 17 30.35 1028 10 16 0.00 0.00
1:53 am 01:53 Clear 37 2.8 28 -2.2 70 70 ENE 6 9 30.37 1029 10 16 0.00 0.00
2:53 am 02:53 Clear 35 1.7 28 -2.2 76 76 NW 3 6 30.41 1030 10 16 0.00 0.00
3:53 am 03:53 Clear 32 0 27 -2.8 82 82 Calm 30.43 1031 10 16 0.00 0.00
4:53 am 04:53 Clear 30 -1.1 27 -2.8 88 88 SW 6 9 30.45 1031 10 16 0.00 0.00
5:53 am 05:53 Clear 29 -1.7 26 -3.3 89 89 SSW 5 7 30.48 1032 10 16 0.00 0.00
6:53 am 06:53 Clear 29 -1.7 26 -3.3 89 89 Calm 30.53 1034 10 16 0.00 0.00
7:53 am 07:53 Sunny 27 -2.8 25 -3.9 92 92 SW 6 9 30.55 1035 10 16 0.00 0.00
8:53 am 08:53 Sunny 34 1.1 29 -1.7 82 82 Calm 30.56 1035 10 16 0.00 0.00
9:53 am 09:53 Sunny 39 3.9 32 0 76 76 W 5 7 30.57 1035 10 16 0.00 0.00
10:53 am 10:53 Sunny 46 7.8 31 -0.6 56 56 Calm 30.57 1035 10 16 0.00 0.00
11:53 am 11:53 Sunny 51 10.6 29 -1.7 43 43 NNE 3 6 30.54 1034 10 16 0.00 0.00
12:53 pm 12:53 Sunny 53 11.7 22 -5.6 30 30 VRB 3 6 30.53 1034 10 16 0.00 0.00
1:53 pm 13:53 Sunny 55 12.8 22 -5.6 28 28 ESE 5 7 30.50 1033 10 16 0.00 0.00
2:53 pm 14:53 Sunny 56 13.3 23 -5 28 28 E 6 9 30.49 1033 10 16 0.00 0.00
3:53 pm 15:53 Sunny 56 13.3 23 -5 28 28 ENE 9 15 30.49 1032 10 16 0.00 0.00
4:53 pm 16:53 Sunny 55 12.8 21 -6.1 26 26 ENE 14 22 30.48 1032 10 16 0.00 0.00
5:53 pm 17:53 Sunny 52 11.1 22 -5.6 31 31 E 12 19 30.47 1032 10 16 0.00 0.00
6:53 pm 18:53 Clear 46 7.8 25 -3.9 44 44 E 10 17 30.47 1032 10 16 0.00 0.00
7:53 pm 19:53 Clear 42 5.6 25 -3.9 51 51 E 12 19 30.47 1032 10 16 0.00 0.00
8:53 pm 20:53 Clear 44 6.7 23 -5 43 43 E 9 15 30.45 1031 10 16 0.00 0.00
9:53 pm 21:53 Clear 41 5 24 -4.4 51 51 ENE 9 15 30.43 1030 10 16 0.00 0.00
10:53 pm 22:53 Clear 39 3.9 24 -4.4 55 55 ENE 9 15 30.40 1030 10 16 0.00 0.00
11:53 pm 23:53 Clear 37 2.8 25 -3.9 62 62 ENE 8 13 30.39 1029 10 16 0.00 0.00

Powered by AerisWeather